This is the latest recevied weather packets stored in our database for station/object BV5AB-33. If no packets are shown the sender has not sent any weather packets the latest 10 day(s).
| Time | Temp. | Humidity | Pressure | Rain* | Wind** | Luminosity | Snow |
|---|---|---|---|---|---|---|---|
| 1788134150 | 83° F | 74% | 730.6 mmHg | 0 in | - | - | - |
| 1788133851 | 83° F | 74% | 730.7 mmHg | 0 in | - | - | - |
| 1788133551 | 83° F | 74% | 730.6 mmHg | 0 in | - | - | - |
| 1788133251 | 83° F | 73% | 730.6 mmHg | 0 in | - | - | - |
| 1788132951 | 83° F | 71% | 730.6 mmHg | 0 in | - | - | - |
| 1788132651 | 85° F | 69% | 730.6 mmHg | 0 in | - | - | - |
| 1788132351 | 85° F | 68% | 730.6 mmHg | 0 in | - | - | - |
| 1788132051 | 85° F | 69% | 730.6 mmHg | 0 in | - | - | - |
| 1788131751 | 85° F | 70% | 730.5 mmHg | 0 in | - | - | - |
| 1788131450 | 85° F | 70% | 730.6 mmHg | 0 in | - | - | - |
| 1788131151 | 85° F | 70% | 730.5 mmHg | 0 in | - | - | - |
| 1788130851 | 85° F | 71% | 730.4 mmHg | 0 in | - | - | - |
| 1788130551 | 84° F | 72% | 730.4 mmHg | 0 in | - | - | - |
| 1788130251 | 84° F | 73% | 730.5 mmHg | 0 in | - | - | - |
| 1788129951 | 83° F | 74% | 730.4 mmHg | 0 in | - | - | - |
| 1788129651 | 82° F | 74% | 730.4 mmHg | 0 in | - | - | - |
| 1788129350 | 82° F | 75% | 730.3 mmHg | 0 in | - | - | - |
| 1788129051 | 82° F | 76% | 730.2 mmHg | 0 in | - | - | - |
| 1788128751 | 80° F | 78% | 730.3 mmHg | 0 in | - | - | - |
| 1788128487 | 80° F | 79% | 730.3 mmHg | 0 in | - | - | - |
| 1788124261 | 79° F | 82% | 729.7 mmHg | 0 in | - | - | - |
| 1788123961 | 79° F | 83% | 729.9 mmHg | 0 in | - | - | - |
| 1788123661 | 79° F | 81% | 729.8 mmHg | 0 in | - | - | - |
| 1788123361 | 79° F | 81% | 730 mmHg | 0 in | - | - | - |
| 1788123061 | 79° F | 81% | 729.7 mmHg | 0 in | - | - | - |
* Rain latest hour (hover to see other rain measurements)
** Current wind speed in m/s (hover to see current wind gust speed)